www.pogodaiklimat.ru
ПОГОДА в Майкопе
Время
(UTC), дата
12 21.11
15 21.11
18 21.11
21 21.11
00 22.11
03 22.11
06 22.11
09 22.11
12 22.11
15 22.11
18 22.11
21 22.11
00 23.11
03 23.11
06 23.11
09 23.11
12 23.11
15 23.11
18 23.11
21 23.11
00 24.11
03 24.11
06 24.11
09 24.11
12 24.11
15 24.11
18 24.11
21 24.11
00 25.11
03 25.11
06 25.11
09 25.11
12 25.11
15 25.11
18 25.11
21 25.11
00 26.11
03 26.11
06 26.11
09 26.11
12 26.11
15 26.11
18 26.11
21 26.11
00 27.11
03 27.11
06 27.11
09 27.11
12 27.11
15 27.11
18 27.11
21 27.11
00 28.11
03 28.11
06 28.11
09 28.11
Ветер
(напр.,м/с)
Видим. Явления Облачность Т
(С)
Тd
(С)
f
(%)
Тe
(С)
Тes
(С)
Комфортность P
(гПа)
Po
(гПа)
Тmin
(С)
Tmax
(С)
R
(мм)
R24
(мм)
S
(см)
СЗ 1 1000 м дымка {ливн. дождь} 10/10 600 м
[Sc]
+2.8 +2.8 100 +1 +1 по сезону 1025.5 998.2
С 2 4000 м слаб. морось {туман} 10/10 300 м
[St]
+2.3 +2.2 99 -1 -1 по сезону 1027.5 1000.1 +3.4 0.4
СВ 1 10 км {морось, туман} 10/8 600 м
[Sc Ac und]
+2.3 +2.0 98 0 0 по сезону 1027.9 1000.5
В 2 10 км 10/8 600 м
[Sc Ac und]
+2.6 +1.9 95 -1 -1 по сезону 1027.9 1000.6
штиль 0 10 км 10/6 600 м
[Sc Ac und]
+2.8 +1.9 94 +2 +2 по сезону 1027.9 1000.5
Ю 1 10 км 10/6 600 м
[Sc Ac und]
+2.9 +1.8 92 +1 +1 по сезону 1027.7 1000.4 +2.1
С 1 10 км дымка 10/8 600 м
[Sc Ac As]
+3.2 +2.3 94 +2 +2 по сезону 1027.8 1000.5
С 1 20 км в посл. час ливневой дождь 10/8 600 м
[Cb cap Ac As]
+3.9 +2.1 88 +2 +3 по сезону 1026.1 999.0
З 1 2000 м ливневой снег [диам. отлож. мокр. снега 5 мм] 10/10 300 м
[Cb cap]
+0.1 -0.4 96 -2 -2 прохладно 1027.9 1000.2
З 1 4000 м слаб. ливневой снег [диам. отлож. мокр. снега 27 мм] 10/10 300 м
[Cb cap]
0.0 0.0 100 -2 -2 прохладно 1029.0 1001.3 +4.1 13
З 2 10 км {ливн. снег} [диам. отлож. мокр. снега 27 мм] 10/6 600 м
[Cb cap Ac As]
-0.4 -1.5 92 -4 -4 прохладно 1031.0 1003.2
ЮЗ 1 10 км [диам. отлож. мокр. снега 27 мм] 10/8 600 м
[Sc Ac As]
-0.8 -1.6 94 -3 -3 по сезону 1031.9 1004.1
штиль 0 20 км [диам. отлож. мокр. снега 25 мм] 10/10 1000 м
[Sc]
-0.6 -1.5 94 -2 -2 по сезону 1032.5 1004.7
ЮЗ 1 10 км [диам. отлож. мокр. снега 25 мм] 10/10 600 м
[Sc]
-0.5 -1.3 94 -3 -3 по сезону 1032.2 1004.4 -2.2 1 8
Ю 2 20 км [диам. отлож. мокр. снега 25 мм] 9/4 600 м
[Sc Ac trans Ci sp]
-1.9 -3.6 88 -6 -6 прохладно 1033.0 1005.0 -2.3
Ю 2 20 км [диам. отлож. мокр. снега 25 мм] 8/0
[Ac trans Cc]
+2.5 -1.0 78 -1 +2 по сезону 1031.4 1003.9
СВ 1 20 км [диам. отлож. мокр. снега 25 мм] 1/0
[Ac trans]
+4.4 -0.1 73 +3 +5 по сезону 1030.0 1002.7
ЮВ 1 20 км 8/0
[Ac trans Ci sp]
+1.8 -0.7 83 0 0 по сезону 1030.1 1002.6 +5.4
Ю 2 20 км 9/0
[Ac trans Ci sp]
+1.1 -0.8 87 -2 -2 по сезону 1029.7 1002.1
ЮВ 2 20 км 9/0
[Ac trans Ci sp]
+0.9 -1.0 87 -3 -3 по сезону 1028.5 1000.9
Ю 3 20 км ясно +0.1 -1.8 87 -5 -5 прохладно 1027.7 1000.1
Ю 3 20 км ясно -0.5 -2.6 86 -5 -5 прохладно 1026.1 998.5 -0.8 3
Ю 4 20 км 8/0
[Ac As Ci sp]
+1.3 -2.9 74 -4 -3 по сезону 1025.4 997.9
Ю 3 20 км 9/3 1000 м
[Sc Ac As Ci sp]
+5.2 -2.0 60 +2 +3 по сезону 1023.2 996.2
Ю 2 20 км 10/3 1000 м
[Sc Ac und]
+5.9 -1.3 60 +4 +4 по сезону 1021.7 994.8
З 1 10 км слаб. ливневой дождь 10/8 600 м
[Cb cap Ac und]
+4.2 +3.1 93 +3 +3 по сезону 1022.7 995.6 +6.1 2
ЮЗ 2 10 км слаб. ливневой дождь 10/8 600 м
[Cb cap Ac und]
+3.0 +1.8 92 -0 -0 по сезону 1023.8 996.6
Ю 2 10 км слаб. ливневой дождь 10/8 600 м
[Cb cap Ac und]
+1.5 +0.6 94 -2 -2 по сезону 1024.0 996.6
Ю 1 10 км {ливн. снег} 10/8 600 м
[Cb cap Ac und]
+1.7 +0.8 94 -0 -0 по сезону 1024.2 996.8
ЮЗ 1 10 км 9/5 1000 м
[Sc diur, vesp Ac As]
+1.1 +0.4 95 -1 -1 по сезону 1024.7 997.3 +0.8 9
Ю 2 10 км 9/5 1000 м
[Sc Ac As]
+1.7 +1.5 99 -2 -2 по сезону 1025.4 998.0 -1.2
З 2 20 км 8/0
[Ac trans Ci sp]
+6.4 -0.7 60 +5 +7 тепло 1024.4 997.5
СЗ 2 20 км 8/3 1000 м
[Sc Ac trans Ci sp]
+6.6 -0.5 60 +5 +5 по сезону 1023.8 996.9
Ю 1 20 км 9/5 1000 м
[Sc Ac As]
+2.3 -1.5 76 +1 +1 по сезону 1024.2 996.9 +7.2
Ю 3 20 км 3/0
[Ac trans]
+0.7 -1.6 85 -4 -4 по сезону 1024.0 996.5
Ю 1 20 км 6/4 1000 м
[Sc Ac trans]
+1.2 -1.3 83 -1 -1 по сезону 1023.9 996.5
ЮЗ 2 10 км слаб. ливневой дождь 10/8 600 м
[Cb cap Ac und]
+2.9 +1.2 89 -0 -0 по сезону 1023.6 996.4
ЮЗ 2 10 км слаб. ливневой дождь 10/8 600 м
[Cb cap Ac und]
+1.8 +0.8 93 -2 -2 по сезону 1023.9 996.6 +0.5 10
Ю 2 20 км {ливн. дождь} 10/10 600 м
[Sc]
+2.4 +1.1 91 -1 -1 по сезону 1024.8 997.5
ЮЗ 1 20 км в посл. час морось 10/10 300 м
[St]
+4.0 +2.2 88 +3 +3 по сезону 1024.7 997.6
З 1 10 км слаб. морось 10/10 300 м
[St]
+4.4 +3.1 91 +3 +3 по сезону 1025.0 997.9
штиль 0 10 км {морось} 10/10 600 м
[Sc]
+3.0 +2.1 94 +2 +2 по сезону 1026.1 998.8 +4.6 2
В 1 10 км {морось} 10/8 600 м
[Sc Ac As]
+2.2 +1.4 94 0 0 по сезону 1027.4 1000.0
штиль 0 10 км 9/8 600 м
[Sc Ac trans]
+0.6 +0.1 96 -1 -1 по сезону 1028.0 1000.4
Ю 1 1000 м дымка 10/10 300 м
[St]
-0.2 -0.2 100 -3 -3 по сезону 1028.8 1001.1
Ю 1 500 м слаб. морось {туман} [диам. гололёда 1 мм] ?/? +0.7 +0.7 100 -2 -2 по сезону 1029.0 1001.4 -1.7 0.1
Ю 1 4000 м дымка {туман} [диам. гололёда 1 мм] 3/0
[Ac trans]
+0.2 +0.2 100 -2 -2 по сезону 1029.4 1001.8
ЮЗ 1 20 км ясно +6.7 +1.2 68 +6 +10 тепло 1027.9 1001.0
СВ 1 20 км ясно +8.5 -0.2 54 +8 +10 тепло 1026.9 1000.1
штиль 0 20 км ясно +2.5 +0.4 86 +1 +1 по сезону 1028.1 1000.7 +8.9 0.0
Ю 1 20 км ясно +1.4 -0.6 87 -0 -0 по сезону 1028.1 1000.7
Ю 3 20 км ясно +1.0 -1.7 82 -3 -3 по сезону 1027.9 1000.4
ЮВ 2 20 км ясно +0.4 -2.3 82 -3 -3 по сезону 1027.1 999.5
Ю 3 20 км ясно +0.3 -3.1 78 -4 -4 по сезону 1026.4 998.8 0.0
Ю 3 20 км ясно +2.9 -2.8 66 -1 -0 по сезону 1025.6 998.3 -0.4
В 1 20 км ясно +10.8 -0.7 45 +11 +15 тепло 1023.6 997.1
Местоположение метеостанции Майкоп (Адыгея, Россия): широта 44.62 долгота 40.08 высота над уровнем моря 216 м.
В архиве по умолчанию представлена погода в Майкопе за последнюю неделю. Архивные данные за месяц целиком и за предыдущие месяцы, начиная с января 2011 года, Вы можете получить, выбрав интересующий диапазон дат из раскрывающегося списка и нажав кнопку "Найти!".
*Определитесь, кто Вы:
Внимание! Время в таблицах - всемирное. Для получения местного времени необходимо прибавить поправку, которая равна 3 ч.
Смотрите также архив погоды в соседних городах и на ближайших метеорологических станциях:
Партнеры нашего сайта:      
Пояснения к столбцам:
  • Ветер - указаны скорость ветра в м/с - средняя за 10 мин, порывы в срок и между сроками (в фигурных скобках) и направление, откуда дует ветер: С - северный,
  • СВ - северо-восточный, В - восточный, ЮВ - юго-восточный, Ю - южный, ЮЗ - юго-западный, З - западный, СЗ - северо-западный.
  • Видимость - горизонтальная дальность видимости в метрах или километрах. При видимости от 1 до 10 км при отсутствии осадков обычно наблюдается дымка, при ухудшении видимости до 1 км и менее - туман. В сухую погоду видимость может ухудшаться дымом, пылью или мглою.
  • Явления - указаны атмосферные явления, наблюдавшиеся в срок или в последний час перед сроком; фигурными скобками обозначены явления, наблюдавшиеся между сроками (за 1-3 часа до срока); квадратными скобками обозначены град или гололедные отложения с указанием их диаметра в мм.
  • Облачность - указаны через наклонную черту общая и нижняя облачность в баллах и высота нижней границы облаков в метрах; квадратными скобками обозначены формы облаков: Ci - перистые, Cs - перисто-слоистые, Cc - перисто-кучевые, Ac - высококучевые, As - высокослоистые, Sc - слоисто-кучевые, Ns - слоисто-дождевые, Cu - кучевые, Cb - кучево-дождевые. Подробнее классификацию облаков см. в Атласе облаков (PDF).
  • T - Температура воздуха - температура, измеренная на высоте 2 м над землей.
  • Td - Температура точки росы - температура, при понижении до которой содержащийся в воздухе водяной пар достигнет насыщения.
  • f - Относительная влажность воздуха - влажноcть воздуха, измеренная на высоте 2 м над землей.
  • Te - Эффективная температура - температура, которую ощущает одетый по сезону человек в тени. Характеристика душности погоды. При расчете учитывается влияние влажности воздуха и скорости ветра на теплоощущения человека.
  • Tes - Эффективная температура на солнце - температура, которую ощущает человек, с поправкой на солнечный нагрев. Характеристика знойности погоды. Зависит от высоты солнца над горизонтом, облачности и скорости ветра. Ночью, в пасмурную погоду, а также при ветре 12 м/с и более поправка равна нулю.
  • P - Атмосферное давление - приведенное к уровню моря атмосферное давление.
  • Po - Атмосферное давление - измеренное на уровне метеостанции атмосферное давление.
  • Tmin - Минимальная температура - минимум температуры воздуха на высоте 2 м над землей.
  • Tmax - Максимальная температура - максимум температуры воздуха на высоте 2 м над землей.
  • R - Количество осадков - Количество выпавших осадков за период времени, мм. При наведении курсора мыши на число - период времени, за который выпало указанное количество осадков.
  • R24 - Количество осадков - Количество выпавших осадков за 24 часа, мм.
  • S - Снежный покров - Высота снежного покрова, см. При наведении курсора мыши на число - состояние снежного покрова и степень покрытия местности в баллах.